Location: Maddington
(51.2000°N, 1.9167°W)
Time: 01:53:17
(UTC+00:00)

Cosmos 1655 Rocket - Pass Details

Date: 18 September 2020
Orbit: 971 x 1005 km, 82.9° (Epoch: 30 October)

Event Time Altitude Azimuth Distance (km) Brightness Sun altitude
Rises 21:03:17 0° 351° (N) 3,686 7.7 -25.3°
Reaches altitude 10° 21:05:50 10° 354° (N) 2,737 6.9 -25.6°
Maximum altitude 21:12:04 65° 77° (ENE) 1,077 4.0 -26.3°
Enters shadow 21:12:33 63° 101° (ESE) 1,094 3.9 -26.4°
